www.pogodaiklimat.ru

Погода и климат >> Архив погоды >> Норвегия >> Квамскоген


ПОГОДА в Квамскогене

  • Прогноз погоды в Квамскогене
  • Монитор погоды в Квамскогене

АРХИВ ПОГОДЫ в Квамскогене

Время (UTC), дата Ветер
(напр.,м/с)
 
Видим.   Явления Облачность Т
(С)
Тd
(С)
f
(%)
Тe
(С)
Тes
(С)
Комфортность P
(гПа)
Po
(гПа)
Тmin
(С)
Tmax
(С)
R
(мм)
R24
(мм)
S
(см)
22 13.06 ЮВ 4
{9}
н/о н/о +12.5 +6.1 65 +11 +11 1011.9 958.5
23 13.06 ЮВ 4
{10}
н/о н/о +12.1 +6.0 66 +10 +10 1012.3 958.8
00 14.06 В 6
{10}
н/о н/о +13.0 +4.5 56 +11 +11 1012.3 959.0
01 14.06 ЮВ 4
{10}
н/о н/о +11.9 +5.1 63 +10 +10 1012.8 959.3
02 14.06 ЮВ 4
{9}
н/о н/о +12.1 +5.3 63 +10 +10 1013.2 959.7
03 14.06 В 3
{6}
н/о н/о +11.5 +5.0 64 +10 +10 1013.9 960.2
04 14.06 В 4
{6}
н/о н/о +11.9 +4.9 62 +10 +10 1013.8 960.2
05 14.06 В 5
{9}
н/о н/о +13.1 +4.0 54 +11 +11 1013.6 960.2
06 14.06 В 5
{10}
н/о н/о +13.3 +5.0 57 +12 +12 1014.1 960.7 +10.8 +14.0
07 14.06 В 6
{9}
н/о н/о +13.4 +5.1 57 +11 +11 1014.1 960.8
08 14.06 ЮВ 4
{10}
н/о н/о +13.1 +6.0 62 +12 +12 1014.4 961.0
09 14.06 В 5
{10}
н/о н/о +13.5 +6.4 62 +12 +12 1014.6 961.3
10 14.06 В 4
{9}
н/о н/о +14.1 +6.5 60 +13 +13 1014.8 961.6
11 14.06 В 4
{7}
н/о н/о +14.5 +7.1 61 +13 +13 1015.1 961.9
12 14.06 В 5
{10}
н/о н/о +15.2 +7.3 59 +14 +14 1015.1 962.0
13 14.06 В 4
{9}
н/о н/о +15.2 +7.7 61 +14 +14 1015.2 962.1
14 14.06 ЮВ 5
{8}
н/о н/о +17.6 +8.2 54 +17 +17 1014.7 962.1
15 14.06 ЮВ 4
{8}
н/о н/о +14.6 +8.3 66 +13 +13 1015.8 962.6
16 14.06 ЮВ 4
{6}
н/о н/о +15.6 +8.1 61 +15 +15 1015.3 962.3
17 14.06 В 3
{7}
н/о н/о +15.5 +7.3 58 +15 +15 1015.5 962.5
18 14.06 ЮВ 2
{9}
н/о н/о +14.9 +8.2 64 +15 +15 1015.8 962.6 +12.4 +17.7
19 14.06 ЮВ 1
{3}
н/о н/о +14.9 +8.2 64 +16 +16 1016.3 963.1
20 14.06 З 3
{5}
н/о н/о +12.9 +10.4 85 +11 +11 1017.3 963.7
21 14.06 ЮВ 2
{3}
н/о н/о +12.8 +9.4 80 +12 +12 1017.4 963.8
22 14.06 ЮВ 1
{3}
н/о н/о +12.0 +9.9 87 +12 +12 1018.3 964.5
23 14.06 штиль 0
{1}
н/о н/о +10.9 +9.3 90 +10 +10 1018.8 964.8
00 15.06 СЗ 1
{5}
н/о н/о +9.2 +8.4 95 +8 +8 1019.4 965.0
01 15.06 штиль 0
{1}
н/о н/о +8.5 +8.1 97 +8 +8 1019.4 964.9
02 15.06 Ю 1
{1}
н/о н/о +7.5 +7.1 97 +6 +6 1019.6 964.9
03 15.06 ЮЗ 1
{1}
н/о н/о +7.4 +7.0 97 +6 +6 1019.8 965.0
04 15.06 штиль 0
{2}
н/о н/о +8.2 +7.1 93 +7 +7 1019.6 965.0
05 15.06 штиль 0
{2}
н/о н/о +12.1 +9.1 82 +12 +12 1018.7 964.9
06 15.06 ЮВ 1
{2}
н/о н/о +14.0 +8.2 68 +14 +14 1017.9 964.5 +6.9 +15.6
07 15.06 ЮВ 2
{5}
н/о н/о +14.7 +7.3 61 +14 +14 1017.5 964.3
08 15.06 ЮВ 3
{6}
н/о н/о +15.8 +6.8 55 +15 +15 1017.6 964.5
09 15.06 ЮВ 4
{7}
н/о н/о +17.2 +7.6 53 +17 +17 1016.9 964.1
10 15.06 ЮВ 4
{7}
н/о н/о +18.1 +6.0 45 +18 +18 1016.3 963.7
11 15.06 ЮВ 5
{8}
н/о н/о +19.0 +6.5 44 +19 +19 1015.6 963.2
12 15.06 ЮВ 5
{8}
н/о н/о +19.5 +5.6 40 +20 +20 1015.0 962.7
13 15.06 ЮВ 3
{8}
н/о н/о +20.7 +5.5 37 +22 +22 комфорт 1014.2 962.2
14 15.06 ЮВ 3
{6}
н/о н/о +21.5 +6.2 37 +22 +22 комфорт 1013.4 961.5
15 15.06 ЮВ 3
{7}
н/о н/о +21.9 +6.6 37 +23 +23 комфорт 1013.0 961.2
16 15.06 ЮВ 3
{6}
н/о н/о +21.3 +6.4 38 +22 +22 комфорт 1012.2 960.3
17 15.06 В 2
{5}
н/о н/о +21.6 +6.7 38 +22 +22 комфорт 1011.5 959.7
18 15.06 ЮВ 3
{8}
н/о н/о +21.1 +7.7 42 +22 +22 комфорт 1011.1 959.3 +13.8 +22.2
19 15.06 ЮВ 2
{5}
н/о н/о +19.0 +9.5 54 +20 +20 1011.5 959.3 0.1
20 15.06 В 2
{6}
н/о н/о +15.5 +10.3 71 +15 +15 1013.3 960.4 0.3
21 15.06 ЮВ 1
{5}
н/о н/о +13.8 +12.2 90 +14 +14 1014.1 960.8 0.7
22 15.06 З 1
{4}
н/о н/о +13.5 +12.9 96 +14 +14 1013.4 960.1 0.4
23 15.06 СВ 1 н/о н/о +13.2 +12.7 97 +13 +13 1013.1 959.8 0.3
00 16.06 В 2
{6}
н/о н/о +13.0 +12.7 98 +12 +12 1012.6 959.3 0.5
01 16.06 ЮВ 4
{8}
н/о н/о +13.9 +11.8 87 +12 +12 1011.6 958.5 0.2
02 16.06 В 2
{8}
н/о н/о +14.0 +11.7 86 +13 +13 1011.3 958.2 0.1
03 16.06 В 1
{6}
н/о н/о +13.3 +11.9 91 +13 +13 1011.2 958.0 0.4
04 16.06 В 1
{3}
н/о н/о +12.9 +12.1 95 +13 +13 1011.4 958.1 2
05 16.06 В 2
{4}
н/о н/о +12.8 +12.5 98 +12 +12 1011.2 957.9 2
06 16.06 ЮВ 3
{8}
н/о н/о +12.8 +12.3 97 +11 +11 1011.7 958.4 +12.7 +21.1 9
07 16.06 В 2
{3}
н/о н/о +13.4 +12.5 94 +13 +13 1012.1 958.9 0.3
08 16.06 В 3
{3}
н/о н/о +13.0 +11.7 92 +12 +12 1012.4 959.1
09 16.06 Ю 1
{4}
н/о н/о +13.3 +12.2 93 +13 +13 1012.9 959.6 0.1
10 16.06 В 2
{3}
н/о н/о +12.5 +11.7 95 +11 +11 1013.4 959.9 0.2
11 16.06 Ю 3
{5}
н/о н/о +12.9 +10.8 87 +11 +11 1013.6 960.2
12 16.06 СЗ 2
{5}
н/о н/о +13.1 +12.3 95 +12 +12 1013.6 960.2 0.1
13 16.06 В 2
{4}
н/о н/о +13.5 +11.4 87 +13 +13 1013.7 960.4
14 16.06 В 2
{4}
н/о н/о +14.6 +11.0 79 +14 +14 1013.5 960.4
15 16.06 Ю 2
{6}
н/о н/о +15.2 +7.0 58 +15 +15 1013.6 960.6
16 16.06 ЮВ 2
{6}
н/о н/о +16.1 +9.8 66 +16 +16 1013.6 960.7
17 16.06 ЮЗ 2
{5}
н/о н/о +15.1 +7.7 61 +15 +15 1013.7 960.7
18 16.06 Ю 3
{6}
н/о н/о +14.0 +7.3 64 +13 +13 1014.3 961.1 +12.4 +16.2 0.7
19 16.06 З 1
{5}
н/о н/о +12.8 +8.5 75 +13 +13 1014.8 961.3
20 16.06 З 4
{7}
н/о н/о +11.5 +8.7 83 +9 +9 1015.3 961.6
21 16.06 С 3
{6}
н/о н/о +10.4 +6.4 76 +8 +8 1015.9 961.9
22 16.06 З 1
{5}
н/о н/о +9.1 +5.3 77 +9 +9 1016.2 962.0
23 16.06 СЗ 1
{3}
н/о н/о +7.5 +5.8 89 +7 +7 1016.8 962.2
00 17.06 ЮВ 1
{7}
н/о н/о +8.3 +5.9 85 +8 +8 1016.7 962.3
01 17.06 В 2
{3}
н/о н/о +6.8 +5.3 90 +4 +4 1017.0 962.3
02 17.06 В 1
{4}
н/о н/о +6.4 +5.2 92 +5 +5 1016.9 962.1
03 17.06 ЮВ 1
{3}
н/о н/о +7.0 +5.3 89 +6 +6 1016.6 961.9
04 17.06 ЮВ 2
{3}
н/о н/о +7.8 +5.4 85 +6 +6 1016.0 961.5
05 17.06 ЮВ 3
{4}
н/о н/о +9.9 +6.4 79 +8 +8 1015.2 961.2
06 17.06 ЮВ 3
{5}
н/о н/о +10.6 +7.3 80 +9 +9 1014.9 961.0 +6.4 +14.0
07 17.06 ЮВ 3
{5}
н/о н/о +11.0 +7.3 78 +9 +9 1014.5 960.7
08 17.06 ЮВ 3
{5}
н/о н/о +11.5 +7.2 75 +10 +10 1014.2 960.5
09 17.06 В 5
{7}
н/о н/о +14.1 +5.7 57 +13 +13 1012.9 959.8
10 17.06 В 4
{10}
н/о н/о +14.8 +7.1 60 +14 +14 1012.8 959.8
11 17.06 В 3
{7}
н/о н/о +13.3 +6.9 65 +12 +12 1013.0 959.7
12 17.06 В 3
{10}
н/о н/о +12.2 +8.7 79 +11 +11 1012.8 959.3 0.5
13 17.06 В 2
{6}
н/о н/о +11.8 +9.5 86 +11 +11 1013.2 959.6 0.3
14 17.06 Ю 7
{15}
н/о н/о +12.5 +9.5 82 +10 +10 1013.1 959.7 0.5
15 17.06 Ю 5
{14}
н/о н/о +12.2 +9.6 84 +10 +10 1013.1 959.6 0.2
16 17.06 Ю 4
{10}
н/о н/о +11.9 +9.8 87 +10 +10 1012.7 959.2 0.6
17 17.06 Ю 5
{11}
н/о н/о +11.5 +9.6 88 +9 +9 1012.7 959.1 0.3
18 17.06 Ю 4
{15}
н/о н/о +11.0 +9.9 93 +8 +8 1012.6 958.9 +10.4 +15.8 3
19 17.06 Ю 4
{10}
н/о н/о +11.2 +9.5 89 +9 +9 1012.7 959.1 5
20 17.06 Ю 6
{12}
н/о н/о +11.2 +7.7 79 +8 +8 1012.7 959.1 0.3
21 17.06 Ю 4
{10}
н/о н/о +10.8 +7.7 81 +8 +8 1013.2 959.4 1
22 17.06 Ю 4
{11}
н/о н/о +10.6 +6.9 78 +8 +8 1013.4 959.6
23 17.06 Ю 4
{9}
н/о н/о +10.8 +6.6 75 +8 +8 1013.1 959.3
00 18.06 Ю 3
{12}
н/о н/о +10.6 +6.6 76 +9 +9 1012.7 958.9
01 18.06 Ю 4
{11}
н/о н/о +10.6 +7.3 80 +8 +8 1012.5 958.7 0.1
02 18.06 Ю 4
{8}
н/о н/о +10.5 +7.9 84 +8 +8 1012.3 958.5 1
03 18.06 ЮВ 2
{7}
н/о н/о +10.1 +7.5 84 +9 +9 1012.2 958.4 0.1
04 18.06 Ю 2
{6}
н/о н/о +10.5 +7.4 81 +9 +9 1011.9 958.2
05 18.06 В 1
{6}
н/о н/о +9.8 +8.4 91 +9 +9 1011.8 957.9 0.2
06 18.06 В 2
{11}
н/о н/о +9.9 +8.7 92 +8 +8 1011.6 957.8 +9.6 +11.6 9
07 18.06 ЮВ 5
{9}
н/о н/о +10.4 +8.3 87 +7 +7 1011.9 958.1 0.2
08 18.06 ЮВ 3
{7}
н/о н/о +10.5 +8.4 87 +8 +8 1011.8 958.1
09 18.06 Ю 2
{7}
н/о н/о +11.8 +7.9 77 +11 +11 1011.5 958.0
10 18.06 ЮВ 2
{5}
н/о н/о +12.4 +8.5 77 +12 +12 1011.4 958.0
11 18.06 ЮВ 3
{6}
н/о н/о +12.2 +7.1 71 +11 +11 1011.2 957.8
12 18.06 Ю 2
{9}
н/о н/о +11.3 +8.0 80 +10 +10 1011.5 957.9 0.5
13 18.06 ЮВ 3
{9}
н/о н/о +14.0 +9.3 73 +13 +13 1010.7 957.6 0.3
14 18.06 Ю 3
{7}
н/о н/о +13.6 +7.8 68 +13 +13 1010.6 957.5
15 18.06 Ю 4
{8}
н/о н/о +13.1 +6.9 66 +12 +12 1010.4 957.2
16 18.06 Ю 5
{11}
н/о н/о +12.9 +6.5 65 +11 +11 1010.1 956.9
17 18.06 ЮЗ 5
{10}
н/о н/о +13.7 +6.6 62 +12 +12 1010.0 956.9
18 18.06 ЮЗ 4
{11}
н/о н/о +12.8 +6.4 65 +11 +11 1010.1 956.9 +9.8 +15.1
19 18.06 З 3
{11}
н/о н/о +11.9 +6.6 70 +10 +10 1010.6 957.2
20 18.06 Ю 1
{5}
н/о н/о +11.1 +4.8 65 +11 +11 1011.1 957.5
21 18.06 ЮВ 2
{5}
н/о н/о +10.0 +5.4 73 +9 +9 1011.5 957.7
22 18.06 ЮВ 2
{5}
н/о н/о +9.5 +5.9 78 +8 +8 1011.8 957.9
23 18.06 ЮВ 2
{4}
н/о н/о +9.6 +6.0 78 +8 +8 1011.7 957.8
00 19.06 ЮВ 2
{11}
н/о н/о +9.5 +6.1 79 +8 +8 1011.6 957.7
01 19.06 В 1
{5}
н/о н/о +9.4 +5.6 77 +9 +9 1011.5 957.6
02 19.06 С 1
{3}
н/о н/о +9.4 +5.2 75 +9 +9 1011.4 957.5
03 19.06 В 2
{5}
н/о н/о +9.6 +5.2 74 +8 +8 1011.3 957.4
04 19.06 В 1
{5}
н/о н/о +9.4 +5.4 76 +9 +9 1011.4 957.5
05 19.06 ЮВ 2
{3}
н/о н/о +9.3 +6.2 81 +8 +8 1011.7 957.7
06 19.06 ЮВ 3
{5}
н/о н/о +9.8 +6.0 77 +8 +8 1011.4 957.5 +8.9 +12.9
07 19.06 ЮВ 2
{4}
н/о н/о +10.8 +6.4 74 +10 +10 1011.3 957.6
08 19.06 В 3
{5}
н/о н/о +11.3 +6.3 71 +10 +10 1011.3 957.7
09 19.06 ЮВ 3
{5}
н/о н/о +11.5 +6.4 71 +10 +10 1011.2 957.7
10 19.06 В 2
{5}
н/о н/о +12.9 +5.3 60 +12 +12 1010.6 957.4
11 19.06 В 2
{5}
н/о н/о +13.4 +6.1 61 +13 +13 1010.2 957.1
12 19.06 Ю 2
{5}
н/о н/о +14.2 +5.6 56 +14 +14 1009.9 956.9
13 19.06 С 1
{5}
н/о н/о +15.5 +6.0 53 +16 +16 1009.2 956.5
14 19.06 В 2
{4}
н/о н/о +15.3 +5.8 53 +15 +15 1008.7 956.0
15 19.06 З 1
{3}
н/о н/о +15.3 +4.7 49 +16 +16 1008.1 955.4
16 19.06 ЮВ 2
{3}
н/о н/о +15.0 +6.6 57 +15 +15 1008.0 955.3
17 19.06 ЮВ 3
{6}
н/о н/о +12.8 +7.3 69 +12 +12 1008.2 955.1
18 19.06 В 1
{6}
н/о н/о +12.5 +7.8 73 +13 +13 1007.3 954.2 +9.8 +16.3
19 19.06 СВ 1
{1}
н/о н/о +12.0 +7.7 75 +12 +12 1007.1 953.9
20 19.06 С 1
{1}
н/о н/о +11.5 +7.2 75 +11 +11 1006.6 953.3
21 19.06 СЗ 2
{3}
н/о н/о +10.8 +8.7 87 +9 +9 1006.2 952.8
22 19.06 СЗ 1
{3}
н/о н/о +10.8 +8.9 88 +10 +10 1005.7 952.3
23 19.06 СЗ 2
{3}
н/о н/о +10.4 +8.8 90 +9 +9 1005.4 952.0
00 20.06 СЗ 2
{4}
н/о н/о +9.9 +9.0 94 +8 +8 1005.4 951.9 0.3
01 20.06 ЮВ 1
{2}
н/о н/о +9.7 +9.4 98 +9 +9 1005.3 951.8 0.3
02 20.06 В 1
{2}
н/о н/о +9.7 +9.4 98 +9 +9 1005.0 951.5 0.3
03 20.06 С 1
{2}
н/о н/о +9.6 +9.5 99 +9 +9 1005.0 951.5 0.1
04 20.06 В 1
{2}
н/о н/о +9.6 +9.5 99 +9 +9 1004.7 951.2 0.2
05 20.06 В 2
{3}
н/о н/о +9.6 +9.5 99 +8 +8 1004.7 951.2
06 20.06 В 2
{3}
н/о н/о +9.8 +9.5 98 +8 +8 1004.7 951.2 +9.5 +12.5
07 20.06 В 2
{3}
н/о н/о +10.9 +10.4 97 +9 +9 1004.2 950.9
08 20.06 В 2
{3}
н/о н/о +10.6 +10.0 96 +9 +9 1004.1 950.8
09 20.06 В 3
{5}
н/о н/о +10.8 +10.2 96 +9 +9 1004.3 951.0
10 20.06 З 2
{4}
н/о н/о +10.8 +10.3 97 +9 +9 1004.5 951.2
11 20.06 СЗ 2
{4}
н/о н/о +10.8 +10.2 96 +9 +9 1004.8 951.5 0.1
12 20.06 В 1
{5}
н/о н/о +11.7 +10.6 93 +11 +11 1004.7 951.5 0.2
13 20.06 З 1
{4}
н/о н/о +12.2 +10.4 89 +12 +12 1004.5 951.5
14 20.06 З 5
{8}
н/о н/о +10.6 +9.8 95 +8 +8 1004.9 951.5 0.1
15 20.06 З 5
{7}
н/о н/о +11.2 +9.3 88 +8 +8 1005.2 951.9 0.1
17 20.06 З 5
{7}
н/о н/о +10.8 +8.7 87 +8 +8 1005.5 952.2 0.2
18 20.06 З 3
{8}
н/о н/о +10.7 +8.8 88 +9 +9 1005.9 952.5 +9.8 +12.3 0.2
19 20.06 З 1
{6}
н/о н/о +10.8 +8.9 88 +10 +10 1006.2 952.8 0.1
20 20.06 Ю 1
{6}
н/о н/о +10.2 +6.9 80 +10 +10 1006.3 952.8 0.1

 

Местоположение метеостанции Квамскоген (Норвегия): широта 60.38 долгота 5.97 высота над уровнем моря 455 м.

В архиве по умолчанию представлена погода в Квамскогене за последнюю неделю. Архивные данные за месяц целиком и за предыдущие месяцы, начиная с января 2011 года, Вы можете получить, выбрав интересующий диапазон дат из раскрывающегося списка и нажав кнопку "Ввод!".


*Определитесь, кто Вы:
робот инопланетянин человек

Внимание! Время в таблицах - всемирное. Для получения местного времени необходимо прибавить поправку, которая равна 1 ч.

Смотрите также архив погоды в соседних городах и на ближайших метеорологических станциях:

Погода на Квамсое (Норвегия) (17 км)
Погода в Фоссмарке (Норвегия) (21 км)
Погода в Эванжере (Норвегия) (31 км)
Погода в Булкене (Норвегия) (33 км)
Погода в Бергене (Норвегия) (35 км)
Погода в Воссевангене (Норвегия) (38 км)
Погода в Улленсванге (Норвегия) (38 км)
Погода в Модалене (Норвегия) (53 км)
Погода в Эустеволле (Норвегия) (58 км)
Погода в Мьолфелле (Норвегия) (64 км)

Пояснения к столбцам:

Ветер - указаны скорость ветра в м/с - средняя за 10 мин, порывы в срок и между сроками (в фигурных скобках) и направление, откуда дует ветер: С - северный, СВ - северо-восточный, В - восточный, ЮВ - юго-восточный, Ю - южный, ЮЗ - юго-западный, З - западный, СЗ - северо-западный.
Видимость - горизонтальная дальность видимости в метрах или километрах. При видимости от 1 до 10 км при отсутствии осадков обычно наблюдается дымка, при ухудшении видимости до 1 км и менее - туман. В сухую погоду видимость может ухудшаться дымом, пылью или мглою.
Явления - указаны атмосферные явления, наблюдавшиеся в срок или в последний час перед сроком; фигурными скобками обозначены явления, наблюдавшиеся между сроками (за 1-3 часа до срока); квадратными скобками обозначены град или гололедные отложения с указанием их диаметра в мм.
Облачность - указаны через наклонную черту общая и нижняя облачность в баллах и высота нижней границы облаков в метрах; квадратными скобками обозначены формы облаков: Ci - перистые, Cs - перисто-слоистые, Cc - перисто-кучевые, Ac - высококучевые, As - высокослоистые, Sc - слоисто-кучевые, Ns - слоисто-дождевые, Cu - кучевые, Cb - кучево-дождевые. Подробнее классификацию облаков см. в Атласе облаков (PDF).
T - Температура воздуха - температура, измеренная на высоте 2 м над землей.
Td - Температура точки росы - температура, при понижении до которой содержащийся в воздухе водяной пар достигнет насыщения.
f - Относительная влажность воздуха - влажноcть воздуха, измеренная на высоте 2 м над землей.
Te - Эффективная температура - температура, которую ощущает одетый по сезону человек в тени. Характеристика душности погоды. При расчете учитывается влияние влажности воздуха и скорости ветра на теплоощущения человека.
Tes - Эффективная температура на солнце - температура, которую ощущает человек, с поправкой на солнечный нагрев. Характеристика знойности погоды. Зависит от высоты солнца над горизонтом, облачности и скорости ветра. Ночью, в пасмурную погоду, а также при ветре 12 м/с и более поправка равна нулю.
P - Атмосферное давление - приведенное к уровню моря атмосферное давление.
Po - Атмосферное давление - измеренное на уровне метеостанции атмосферное давление.
Tmin - Минимальная температура - минимум температуры воздуха на высоте 2 м над землей.
Tmax - Максимальная температура - максимум температуры воздуха на высоте 2 м над землей.
R - Количество осадков - Количество выпавших осадков за период времени, мм. При наведении курсора мыши на число - период времени, за который выпало указанное количество осадков.
R24 - Количество осадков - Количество выпавших осадков за 24 часа, мм.
S - Снежный покров - Высота снежного покрова, см. При наведении курсора мыши на число - состояние снежного покрова и степень покрытия местности в баллах.